Koksijde, Belgium

2:09 AM CET on November 25, 2017 (GMT +0100)
Koksijde Air Base

Weather History for EBFN - November, 2012

Change the Weather History Date:

Saturday, November 10, 2012

  Actual Average Record
Temperature  
Mean Temperature 50 °F -  
Max Temperature 55 °F 45 °F 62 °F (2011)
Min Temperature 46 °F 39 °F 33 °F (2006)
Degree Days  
Heating Degree Days 14    
Moisture  
Dew Point 48 °F    
Average Humidity 93    
Maximum Humidity 100    
Minimum Humidity 74    
Precipitation  
Precipitation 0.12 in - - ()
Sea Level Pressure  
Sea Level Pressure 29.51 in    
Wind  
Wind Speed 8 mph ()    
Max Wind Speed 14 mph    
Max Gust Speed -    
Visibility 4.8 miles    
Events Rain    
Averages and records for this station are not official NWS values.
T = Trace of Precipitation, MM = Missing Value Source: Averaged Metar Reports

Daily Weather History Graph

Daily Weather History Graph

Search for Another Location

Airport or City:

Trip Planner

Search our weather history database for the weather conditions in past years. The results will help you decide how hot, cold, wet, or windy it might be!

Date:

Astronomy

Nov. 10, 2012 Rise Set
Actual Time 7:57 AM CET 5:08 PM CET
Civil Twilight 7:21 AM CET 5:44 PM CET
Nautical Twilight 6:42 AM CET 6:23 PM CET
Astronomical Twilight 6:03 AM CET 7:02 PM CET
Moon 3:21 AM CET (11/10) 3:06 PM CET (11/10)
Length of Visible Light 10h 22m
Length of Day
9h 10m
Waning Crescent, 16% of the Moon is Illuminated
Nov 10
Waning Crescent
Nov 13
New
Nov 20
First Quarter
Nov 28
Full
Dec 6
Last Quarter

Hourly Weather History & Observations

Time (CET) Temp. Windchill Dew Point Humidity Pressure Visibility Wind Dir Wind Speed Gust Speed Precip Events Conditions
12:25 AM 48.2 °F - 46.4 °F 93% 29.65 in 3.1 mi South 8.1 mph - N/A   Mostly Cloudy
12:55 AM 48.2 °F - 46.4 °F 93% 29.65 in 3.1 mi SSW 9.2 mph - N/A   Overcast
1:00 AM 48 °F - 46 °F 92% 29.67 in 3 mi SSW 8.9 mph - -   Mist
1:25 AM 48.2 °F - 46.4 °F 93% 29.65 in 3.7 mi SSW 6.9 mph - N/A   Overcast
1:57 AM 48.2 °F - 46.4 °F 93% 29.62 in 3.7 mi South 8.1 mph - N/A   Mostly Cloudy
2:25 AM 48.2 °F - 46.4 °F 93% 29.62 in 3.7 mi South 9.2 mph - N/A Rain Rain
2:37 AM 48.2 °F - 48.2 °F 100% 29.62 in 2.2 mi South 6.9 mph - N/A Rain Heavy Rain
2:55 AM 48.2 °F - 48.2 °F 100% 29.62 in - South 8.1 mph - N/A Rain Light Rain
3:25 AM 48.2 °F - 48.2 °F 100% 29.59 in 2.2 mi South 6.9 mph - N/A   Mostly Cloudy
3:40 AM 48.2 °F - 48.2 °F 100% 29.59 in - SSE 6.9 mph - N/A   Mostly Cloudy
3:55 AM 48.2 °F - 48.2 °F 100% 29.59 in 2.8 mi South 4.6 mph - N/A   Mostly Cloudy
4:00 AM 48 °F - 48 °F 99% 29.60 in 3 mi SSE 6.7 mph - - Rain Light Rain
4:25 AM 48.2 °F - 48.2 °F 100% 29.59 in - South 5.8 mph - N/A   Mostly Cloudy
4:56 AM 48.2 °F - 48.2 °F 100% 29.56 in - South 8.1 mph - N/A   Mostly Cloudy
5:04 AM 48.2 °F - 48.2 °F 100% 29.56 in 3.1 mi South 8.1 mph - N/A   Mostly Cloudy
5:25 AM 48.2 °F - 48.2 °F 100% 29.56 in 3.1 mi South 9.2 mph - N/A   Mostly Cloudy
5:56 AM 48.2 °F - 48.2 °F 100% 29.53 in 3.1 mi South 9.2 mph - N/A   Mostly Cloudy
6:08 AM 48.2 °F - 48.2 °F 100% 29.53 in - SSE 9.2 mph - N/A Rain Light Rain
6:14 AM 48.2 °F - 48.2 °F 100% 29.53 in 3.1 mi SSE 10.4 mph - N/A Rain Light Rain
6:25 AM 48.2 °F - 48.2 °F 100% 29.53 in - South 10.4 mph - N/A   Mostly Cloudy
6:55 AM 48.2 °F - 48.2 °F 100% 29.53 in - SSE 9.2 mph - N/A   Mostly Cloudy
7:00 AM 49 °F - 48 °F 93% 29.55 in 2 mi South 8.9 mph - - Rain Light Rain
7:25 AM 48.2 °F - 48.2 °F 100% 29.53 in 2.5 mi South 8.1 mph - N/A   Mostly Cloudy
7:55 AM 48.2 °F - 48.2 °F 100% 29.53 in 2.5 mi South 9.2 mph - N/A   Mostly Cloudy
8:16 AM 48.2 °F - 48.2 °F 100% 29.53 in - South 6.9 mph - N/A   Mostly Cloudy
8:25 AM 48.2 °F - 48.2 °F 100% 29.53 in - South 6.9 mph - N/A   Mostly Cloudy
8:55 AM 50.0 °F - 48.2 °F 94% 29.53 in - South 6.9 mph - N/A   Mostly Cloudy
9:02 AM 50.0 °F - 48.2 °F 94% 29.53 in - South 6.9 mph - N/A   Mostly Cloudy
9:25 AM 50.0 °F - 48.2 °F 94% 29.53 in - South 6.9 mph - N/A   Mostly Cloudy
9:55 AM 50.0 °F - 50.0 °F 100% 29.50 in - South 6.9 mph - N/A   Mostly Cloudy
10:00 AM 50 °F - 49 °F 95% 29.53 in 2 mi South 6.7 mph - -   Mist
10:05 AM 50.0 °F - 50.0 °F 100% 29.50 in 2.2 mi South 8.1 mph - N/A   Mostly Cloudy
10:25 AM 50.0 °F - 50.0 °F 100% 29.50 in 2.2 mi South 8.1 mph - N/A   Mostly Cloudy
10:34 AM 51.8 °F - 50.0 °F 94% 29.50 in - South 10.4 mph - N/A   Mostly Cloudy
10:55 AM 51.8 °F - 50.0 °F 94% 29.50 in 3.1 mi South 10.4 mph - N/A   Mostly Cloudy
11:25 AM 51.8 °F - 50.0 °F 94% 29.50 in 4.3 mi South 11.5 mph - N/A   Scattered Clouds
11:37 AM 53.6 °F - 50.0 °F 88% 29.50 in 5.0 mi South 12.7 mph - N/A   Scattered Clouds
11:55 AM 53.6 °F - 48.2 °F 82% 29.47 in 6.2 mi SSW 10.4 mph - N/A   Scattered Clouds
12:25 PM 55.4 °F - 50.0 °F 82% 29.47 in 6.2 mi South 13.8 mph - N/A   Mostly Cloudy
12:55 PM 55.4 °F - 48.2 °F 77% 29.47 in 6.2 mi South 11.5 mph - N/A   Mostly Cloudy
1:00 PM 55 °F - 49 °F 74% 29.48 in 14 mi South 11.2 mph - -   Partly Cloudy
1:25 PM 53.6 °F - 48.2 °F 82% 29.44 in 6.2 mi South 10.4 mph - N/A   Mostly Cloudy
1:55 PM 55.4 °F - 48.2 °F 77% 29.44 in 6.2 mi South 10.4 mph - N/A   Mostly Cloudy
2:25 PM 55.4 °F - 48.2 °F 77% 29.44 in 6.2 mi South 11.5 mph - N/A   Mostly Cloudy
2:55 PM 53.6 °F - 48.2 °F 82% 29.42 in 6.2 mi South 9.2 mph - N/A   Mostly Cloudy
3:25 PM 53.6 °F - 50.0 °F 88% 29.42 in 5.6 mi South 9.2 mph - N/A Rain Light Rain
3:49 PM 53.6 °F - 50.0 °F 88% 29.42 in 5.0 mi South 6.9 mph - N/A Rain Light Rain
3:55 PM 53.6 °F - 50.0 °F 88% 29.42 in 4.3 mi South 6.9 mph - N/A Rain Light Rain
4:00 PM 53 °F - 50 °F 84% 29.43 in 4 mi South 6.7 mph - - Rain Light Rain
4:25 PM 51.8 °F - 50.0 °F 94% 29.42 in 4.3 mi SSW 6.9 mph - N/A Rain Light Rain
4:55 PM 51.8 °F - 50.0 °F 94% 29.42 in 6.2 mi SSW 4.6 mph - N/A   Mostly Cloudy
5:09 PM 51.8 °F - 50.0 °F 94% 29.42 in 3.7 mi Variable 3.5 mph - N/A Rain Light Rain
5:25 PM 51.8 °F - 50.0 °F 94% 29.42 in 3.1 mi WSW 4.6 mph - N/A Rain Rain
5:55 PM 50.0 °F - 48.2 °F 94% 29.42 in - NW 8.1 mph - N/A Rain Rain
6:25 PM 50.0 °F - 48.2 °F 94% 29.44 in 3.1 mi WNW 8.1 mph - N/A Rain Heavy Rain
6:55 PM 48.2 °F - 48.2 °F 100% 29.44 in 6.2 mi WNW 11.5 mph - N/A Rain Light Rain
7:00 PM 49 °F - 47 °F 92% 29.46 in 8 mi WNW 11.2 mph - - Rain Light Rain
7:25 PM 48.2 °F - 46.4 °F 93% 29.44 in - WNW 11.5 mph - N/A Rain Light Rain
7:55 PM 48.2 °F - 46.4 °F 93% 29.44 in 6.2 mi WNW 5.8 mph - N/A Rain Light Rain
8:14 PM 48.2 °F - 44.6 °F 87% 29.47 in 6.2 mi WNW 9.2 mph - N/A Rain Light Rain
8:25 PM 48.2 °F - 46.4 °F 93% 29.47 in 6.2 mi West 9.2 mph - N/A Rain Light Rain
8:55 PM 48.2 °F - 46.4 °F 93% 29.47 in 6.2 mi West 6.9 mph - N/A   Mostly Cloudy
9:25 PM 48.2 °F - 46.4 °F 93% 29.50 in 6.2 mi West 6.9 mph - N/A   Mostly Cloudy
9:55 PM 46.4 °F 41.5 °F 46.4 °F 100% 29.50 in 6.2 mi SW 10.4 mph - N/A   Mostly Cloudy
10:00 PM 47 °F - 46 °F 92% 29.52 in 12 mi SW 8.9 mph - -   Partly Cloudy
10:25 PM 46.4 °F 41.5 °F 44.6 °F 93% 29.50 in 6.2 mi SW 10.4 mph - N/A   Mostly Cloudy
10:55 PM 46.4 °F 41.9 °F 44.6 °F 93% 29.53 in 6.2 mi SW 9.2 mph - N/A   Scattered Clouds
11:25 PM 46.4 °F 41.9 °F 44.6 °F 93% 29.56 in 6.2 mi SW 9.2 mph - N/A   Scattered Clouds
11:55 PM 46.4 °F 41.9 °F 44.6 °F 93% 29.56 in 6.2 mi SW 9.2 mph - N/A   Mostly Cloudy